SL-14 R/B, 22652

Orbit data source: Space-Track

SL-14 R/B, 22652 is space debris in LEO originally from a launch on Tue, 11 May 1993 UTC launched from the Plesetsk Missile And Space Complex (PKMTR). Debris objects in space refer to the collection of defunct objects orbiting the Earth. Examples of debris include non-operational satellites, rocket bodies, and fragments generated from explosions, collisions, or faulty payload assembly.

Loading next visibility...
Identifier
22652, 1993-030G
Orbit
LEO
Country
Flag of CISCIS
Related business
Manufacturer
Yuzhnoe
Mission
Spacecraft
Bus & Motor
S5M, Unknown motor
Mass
1,600 kg wet, 1,600 kg dry
Launch date (UTC)
1993-05-11 (33 years ago)
Launch vehicle
Unknown
Launch site
Plesetsk Missile And Space Complex (PKMTR)
Object type
Payload
Rocket body
Debris
Shape & HBR
Cyl, 1.4 m
Radar Cross Section
7.351 m², Medium (>0.1 m² and < 1m²)

Expand to show TLE details & history
Last TLE update: 13 hours ago

TLE from 13 hours ago
0 SL-14 R/B
1 22652U 93030G   26034.54983001  .00000015  00000-0  22818-4 0  9998
2 22652  82.5840  49.4840 0006633 237.4992 238.2389 12.63196874509162
Epoch: 2026-02-03T13:11Z
TLE epoch observation values (Epoch: 2026-02-03T13:11:45.312Z)
Latitude
63.43041°
Longitude
-117.19392°
Altitude
1,423.376 km
Speed
7.154 km/s
True Right ascension
14h 17m 53s
True Declination
63° 18' 16"
Sunlit
Object was in daylight at epoch
Visualization orbit readout
Latitude
Unknown
Longitude
Unknown
Altitude
Unknown
Speed
Unknown
Apparent Right ascension
Unknown
Apparent Declination
Unknown
Sunlit
N/A
Visualization observer readout
Local Sidereal Time
03:38:34
Azimuth
Unknown
Elevation
Unknown
Doppler factor
Unknown
Orbital elements
Apogee altitude
1,412.26 km
Perigee altitude
1,401.932 km
Semi-major axis
7,785.233 km
Eccentricity
0.00066
Inclination
82.584°
RAAN
49.484°
Arg. of periapsis
237.4992°
True anomaly
238.1743°
Mean anomaly
238.2389°
Eccentric anomaly
238.2066°
Mean motion
3.15963 °/min
Orbital period
113.94 mins
BSTAR
0.000022818
Loading maneuver chart data...
Computing Atmospheric mass density...
Loading historical data...
Loading historical data...
Loading historical data...
Loading historical data...
Loading historical data...
Loading historical data...
Loading historical data...

Documentation

Showing up to 5 results
|